Theta_e
327 331 335 338 338 344 353 356 357 358 356 352 350 348 346 347 345 350 352 352 351 352 352 347 348 350 347 349 350 349 351 349 352 344 343 342 347 348 348 349 351 349 348
322 327 330 334 338 340 344 350 355 357 357 353 353 351 349 350 349 350 353 354 352 353 352 353 353 356 353 356 356 356 349 347 350 340 338 333 335 340 342 344 345 347 346
319 323 327 331 338 341 344 347 352 355 357 357 355 354 353 353 353 353 353 356 357 358 357 356 356 356 357 360 360 358 354 338 345 348 342 330 326 327 337 339 341 343 342
320 322 325 328 333 336 343 346 349 352 354 358 356 355 348 346 349 352 357 363 361 360 360 359 358 360 360 364 360 362 353 349 347 348 346 336 332 325 322 333 337 341 341
319 319 322 325 327 331 334 343 348 351 353 355 355 351 351 348 351 353 353 357 359 358 356 359 360 360 358 359 358 358 357 351 350 347 342 336 332 331 326 321 325 333 333
315 318 321 323 324 325 329 338 344 348 351 352 353 353 351 351 349 350 349 349 354 354 352 352 356 357 354 353 356 358 357 355 350 353 348 336 334 327 330 326 324 325 331
316 317 318 319 322 324 327 334 340 342 346 347 348 349 351 351 349 347 346 345 342 342 343 346 347 346 347 347 350 350 350 350 348 349 344 345 339 338 334 331 329 330 329
316 317 318 320 321 323 325 331 339 342 344 342 345 346 348 344 342 340 337 335 334 333 336 336 336 335 336 339 344 344 342 343 341 344 348 345 345 343 342 335 334 330 330
318 319 319 320 322 324 331 334 339 338 338 337 338 338 339 338 335 335 334 331 332 329 329 329 328 330 330 330 331 330 334 337 340 341 341 340 342 346 343 339 336 334 326
321 324 327 329 331 333 334 334 336 335 333 333 333 330 330 330 330 329 327 326 326 326 324 323 325 325 326 327 328 327 329 329 328 331 335 337 339 339 339 338 337 335 330
319 320 323 325 329 330 330 330 330 328 327 326 325 325 324 324 324 323 322 322 322 321 319 319 319 319 319 322 322 323 322 322 324 326 327 327 330 329 333 335 334 332 331
321 322 323 324 326 327 326 325 324 322 321 322 321 321 320 319 319 319 318 318 318 317 315 316 316 315 315 317 316 316 317 317 317 318 320 321 321 325 326 324 324 325 326
321 321 321 320 319 319 318 318 318 317 318 317 317 317 317 316 316 314 316 314 314 311 311 312 311 311 311 311 312 312 313 312 312 313 314 316 318 318 319 321 320 320 321
319 319 319 318 318 316 315 315 313 314 315 314 313 311 315 315 314 314 313 311 310 310 310 310 311 311 311 311 309 308 310 311 312 313 313 313 313 313 314 315 316 317 317
318 318 318 316 315 313 310 311 312 313 314 311 311 313 313 312 311 309 310 310 310 310 310 309 310 310 310 304 303 305 307 309 310 310 311 312 310 307 307 307 309 310 311
317 316 316 315 312 313 312 310 310 311 313 311 309 308 306 306 307 308 309 310 309 309 309 308 308 309 308 297 297 299 304 307 306 304 305 306 306 306 306 306 306 306 305
315 313 313 314 313 312 312 311 310 311 310 308 307 305 305 306 307 307 308 307 307 308 307 307 308 308 309 297 296 297 305 306 305 304 302 301 303 303 303 303 303 303 303
311 310 309 312 312 312 311 311 310 308 307 305 305 305 305 305 306 307 307 307 306 307 306 307 307 308 308 298 297 298 306 306 307 307 304 303 302 303 302 301 301 302 304
306 302 302 302 308 305 309 309 308 306 304 303 304 304 305 305 306 305 305 306 305 305 305 304 305 306 307 298 297 298 301 302 304 306 308 307 306 300 297 301 300 300 301
301 299 301 304 308 308 308 306 304 303 302 302 303 304 305 305 305 305 305 305 305 304 304 305 306 304 305 300 297 298 302 302 302 305 308 303 304 298 296 302 301 300 305
299 300 303 306 305 306 305 303 303 302 302 303 304 304 305 304 305 304 304 304 303 305 304 304 304 305 305 307 297 296 303 301 299 301 305 309 299 296 295 294 298 298 300
300 305 305 303 303 303 303 302 301 302 303 303 303 303 304 303 302 301 301 301 304 302 303 303 304 306 307 301 300 295 295 298 301 304 307 307 297 295 294 295 294 294 295
304 304 303 302 301 301 301 302 301 302 302 304 303 303 302 302 302 301 301 302 302 301 301 302 300 301 303 305 299 296 295 298 301 303 301 297 295 295 297 297 296 295 296
302 303 302 301 300 301 300 301 301 301 302 302 301 302 302 299 302 302 301 299 299 300 301 300 297 299 300 300 298 298 297 297 299 300 304 302 298 297 299 302 304 304 301
301 301 300 300 298 299 299 300 301 301 301 303 301 301 301 299 299 299 301 302 302 298 297 296 296 295 293 293 290 290 293 296 297 295 303 302 300 300 300 302 304 304 306
301 300 299 299 298 298 299 299 300 300 301 303 300 298 297 296 296 297 303 295 294 293 292 291 291 292 291 290 290 291 291 291 293 302 298 298 296 295 296 297 298 302 304
Wind_Speed
11 10 11 11 11 11 12 12 12 11 10 9 9 8 8 5 4 7 14 13 9 12 9 7 9 9 10 9 8 8 9 8 4 4 5 4 6 7 9 13 10 9 10
13 11 11 11 12 12 13 14 13 12 11 9 7 6 6 7 7 8 11 12 11 11 9 9 8 9 9 9 10 9 7 9 7 7 4 4 4 3 9 8 8 9 8
17 14 13 12 12 12 12 13 14 13 13 12 7 6 6 6 7 8 10 9 11 10 10 9 8 9 9 8 8 9 12 7 4 7 4 3 2 3 4 10 9 6 6
20 17 15 13 12 11 11 10 11 12 12 12 9 10 8 8 6 5 5 7 9 6 7 8 8 8 8 9 8 8 11 10 7 4 5 3 4 3 4 5 5 4 6
20 20 19 15 13 11 8 7 8 9 9 10 11 9 11 6 5 3 3 2 2 2 5 5 6 8 8 9 10 11 11 8 9 8 5 4 3 5 5 8 5 5 7
22 20 19 17 14 12 8 4 4 6 7 7 9 8 5 4 4 2 1 3 4 2 3 3 4 5 6 7 10 11 12 11 10 8 7 5 5 5 8 10 10 11 11
19 19 19 17 15 12 9 3 5 5 6 6 6 6 6 5 4 3 3 2 5 4 6 5 4 4 4 6 7 8 10 11 12 12 11 10 9 9 10 10 14 11 10
16 17 17 16 17 15 3 5 7 8 8 6 6 5 5 4 6 8 7 7 5 6 6 5 6 7 7 7 6 6 7 8 8 13 13 11 10 12 11 15 13 12 13
11 10 8 7 7 6 8 6 10 12 13 11 11 11 10 10 9 10 7 5 4 6 4 5 4 5 6 6 7 5 7 9 8 9 9 8 11 8 6 10 12 13 15
13 11 11 9 10 13 13 13 14 16 16 15 12 11 11 11 9 9 9 8 7 6 6 4 6 6 6 8 9 8 8 10 9 9 8 9 9 8 7 8 9 9 12
16 15 14 14 16 16 17 18 17 16 15 15 13 12 10 9 9 8 8 7 7 5 5 6 6 7 8 8 9 9 10 11 11 11 11 11 11 9 8 7 9 8 8
19 19 19 19 19 18 17 17 16 16 14 13 12 11 10 8 7 8 10 9 6 6 7 9 10 10 10 10 10 11 11 11 12 12 13 13 10 11 10 9 10 9 7
23 22 22 20 19 18 17 15 15 14 12 12 13 11 8 6 7 7 12 7 7 9 12 11 12 12 12 12 12 13 12 13 14 14 15 14 14 13 12 13 11 11 9
23 22 20 18 16 16 15 14 13 11 12 10 12 9 8 8 9 9 7 10 13 12 11 11 11 11 12 10 12 13 13 13 13 13 14 15 15 15 15 14 15 13 13
21 19 18 17 16 16 12 13 11 9 9 9 8 8 7 9 11 11 11 11 11 10 9 9 9 9 8 9 11 12 13 13 13 13 14 14 15 19 16 12 15 17 15
19 18 19 20 15 15 12 11 9 7 7 9 9 8 9 9 9 10 10 8 8 9 8 8 9 8 6 9 10 12 13 13 13 13 13 14 16 14 12 11 14 14 15
18 17 18 16 15 12 9 10 7 7 8 8 8 9 10 10 8 7 7 8 8 9 9 8 9 9 7 9 8 12 13 12 12 13 12 11 11 14 12 11 13 14 14
17 14 14 15 13 11 9 8 7 8 9 9 9 8 8 7 7 8 9 10 10 10 10 10 10 9 7 9 11 15 13 12 13 12 11 12 13 13 12 14 15 15 15
14 12 12 10 11 10 8 6 7 8 8 8 7 7 7 7 7 8 9 8 9 8 8 8 9 9 10 6 8 12 11 12 13 13 13 12 13 13 9 14 15 15 14
13 12 10 7 9 8 7 7 7 6 6 6 6 7 7 7 8 8 8 7 7 8 8 9 9 7 10 8 4 9 9 11 11 14 15 12 14 12 12 14 15 16 15
15 10 7 10 8 7 6 6 6 6 7 6 6 7 7 7 8 7 7 7 7 8 9 9 9 9 9 11 9 7 13 10 12 11 12 12 8 9 12 14 14 16 15
13 11 8 8 8 7 5 4 6 6 6 6 6 6 6 6 6 6 5 4 6 8 8 10 9 9 11 9 10 8 11 16 13 15 12 13 19 25 23 17 19 21 19
12 9 8 7 7 6 5 4 5 5 5 4 6 6 6 6 5 4 5 5 7 7 7 7 8 9 9 11 12 18 16 16 13 11 15 19 17 17 15 17 20 18 9
9 8 7 6 6 4 4 5 5 4 4 5 4 4 4 6 5 4 4 4 5 7 8 8 9 9 10 10 13 13 12 14 12 15 11 13 12 14 13 13 12 9 8
7 6 6 5 5 5 6 5 4 4 3 2 4 4 4 6 6 5 4 4 4 7 8 7 9 9 9 11 17 15 11 11 12 13 9 10 11 12 12 12 13 12 12
7 6 6 5 5 5 5 5 4 4 5 3 4 4 4 4 4 4 5 7 2 2 3 6 6 7 8 17 19 19 18 17 17 9 11 11 11 11 12 12 13 11 12
Wind_Direction
190 180 197 201 208 211 208 204 204 204 208 208 211 207 207 209 226 190 234 231 221 213 194 214 226 230 244 242 221 232 233 253 236 257 258 270 273 277 277 267 259 255 231
221 195 200 200 204 212 217 217 217 208 204 209 215 230 220 209 216 217 220 225 212 219 204 211 230 228 244 229 235 228 226 235 221 263 275 297 319 347 312 286 269 259 266
231 219 211 209 202 211 210 214 215 216 216 222 200 200 211 224 204 212 213 199 215 209 213 222 233 240 243 253 228 229 233 248 193 222 248 259 206 33 263 274 259 244 253
219 225 219 217 211 219 204 216 217 222 215 211 218 218 235 243 235 237 184 182 199 207 203 228 236 244 248 247 242 237 237 236 236 204 201 159 159 158 292 260 267 252 253
221 225 230 235 228 214 230 203 219 217 224 211 234 223 235 214 195 179 210 84 125 7 238 235 245 243 244 248 251 251 231 227 241 241 182 175 169 165 201 259 263 240 230
228 225 232 232 235 244 184 183 190 209 202 205 215 227 207 194 191 196 194 93 92 121 11 317 287 277 294 280 269 258 252 251 257 254 231 186 178 176 217 240 246 239 243
226 229 226 235 240 241 262 63 140 161 167 177 192 195 196 208 194 189 86 86 66 32 36 13 351 315 316 298 283 279 271 268 261 256 260 242 221 212 216 233 260 254 248
220 222 228 230 234 235 199 145 140 136 127 115 105 84 141 127 96 61 62 52 59 61 39 30 16 8 4 352 344 288 296 288 285 279 272 268 245 235 236 247 247 253 250
226 236 228 250 250 245 91 105 95 98 100 101 95 92 88 86 94 96 109 102 71 82 36 27 6 18 352 347 334 335 317 324 306 298 285 276 279 274 259 255 260 262 265
78 69 83 94 94 87 91 113 115 103 102 99 95 91 89 87 89 83 78 66 65 49 35 16 20 14 351 355 342 343 338 321 314 313 329 308 299 302 280 267 268 263 261
104 102 100 105 111 118 113 108 105 103 97 94 89 86 85 86 86 84 77 60 55 25 15 14 352 348 354 353 343 334 311 320 317 309 301 300 297 295 303 293 285 289 283
120 121 120 120 116 109 106 100 98 96 95 92 88 81 71 61 64 65 57 33 11 13 1 357 350 345 340 340 331 317 317 313 310 308 304 299 296 294 279 276 287 295 310
111 111 109 106 103 101 94 95 92 92 93 89 91 72 57 56 58 45 42 3 346 6 8 352 343 340 335 334 327 318 326 319 309 305 299 298 299 292 292 294 286 275 254
120 115 111 100 99 100 93 86 77 73 76 73 65 55 27 20 25 27 11 4 7 3 351 353 344 339 339 335 359 333 321 312 308 307 300 295 294 293 295 290 285 278 274
123 116 113 110 106 98 97 86 73 79 75 81 68 49 20 21 13 4 7 4 1 360 357 349 347 349 327 35 351 332 321 316 314 312 307 306 326 316 302 295 294 301 292
121 119 126 118 113 97 96 89 76 93 71 54 41 27 16 11 14 7 8 4 6 7 358 352 345 346 348 36 354 327 322 315 314 316 314 310 303 297 312 293 276 278 285
131 126 110 97 94 98 92 89 80 58 50 36 24 14 4 8 6 3 16 12 4 1 2 358 353 351 1 37 346 336 320 324 323 317 314 310 303 319 306 308 296 284 264
118 108 103 105 108 106 98 84 57 39 29 22 14 5 358 4 12 16 14 5 3 6 358 354 356 350 19 32 355 338 320 318 323 318 307 299 296 296 295 298 290 283 276
115 101 91 90 83 70 63 58 46 33 18 16 5 4 11 15 13 13 10 10 1 354 346 355 343 338 342 27 336 329 320 313 308 302 303 306 299 289 259 289 292 289 280
107 100 105 110 92 70 51 34 29 12 15 7 13 16 17 13 15 10 11 7 357 8 344 343 339 335 317 314 296 317 324 315 316 311 310 267 256 273 268 277 283 281 281
108 113 108 82 73 56 39 37 14 20 6 17 21 22 19 9 19 11 17 2 351 349 342 341 336 321 324 325 346 314 326 326 315 309 305 316 323 264 272 263 274 271 289
119 109 102 90 66 45 34 20 32 9 2 15 18 23 17 8 14 4 337 335 349 336 338 343 334 343 345 331 313 327 311 316 305 311 318 319 328 306 295 289 274 267 268
111 111 110 93 73 62 25 28 31 6 2 16 27 25 11 360 355 351 358 346 346 345 328 342 343 337 338 326 357 334 325 322 325 317 317 299 291 296 299 294 288 283 257
118 113 102 92 86 67 56 39 27 4 342 32 22 18 7 341 359 343 3 340 334 332 344 353 341 336 339 341 344 336 329 327 326 327 325 324 304 293 286 306 309 304 263
109 92 89 85 74 52 43 38 22 2 354 28 35 6 359 20 348 336 307 312 44 3 347 354 336 345 338 338 315 316 324 326 323 319 351 356 357 346 345 340 336 332 336
111 101 80 66 54 46 39 35 19 347 360 2 25 25 356 355 333 308 290 185 182 201 314 322 342 344 328 321 324 334 329 325 339 17 12 4 356 350 343 341 337 342 5